Flag for U.S.A. Weather past 2 weeks in Hartford, Connecticut, U.S.A.

Now
38 °F

Clear.


Feels Like: 38 °F
Forecast: 37 / 65 °F
Wind: No wind

Location: Hartford-Brainard Airport


UV Index: 5 (Moderate)

Visibility: 10 mi


Pressure: 30.32 "Hg

Humidity: 76%

Dew point: 31 °F

Location of HartfordLocation

Historic Weather in Hartford

°F

Hartford temperature yesterday

Maximum temperature yesterday: 59 °F (at 3:53 PM)
Minimum temperature yesterday: 36 °F (at 5:53 AM)
Average temperature yesterday: 48 °F

Past Weeks' High & Low Weather Summary

 TemperatureHumidityPressure
High72 °F (Apr 14, 1:53 PM)100% (Apr 8, 5:53 AM)30.76 "Hg (Apr 8, 5:53 AM)
Low30 °F (Apr 10, 5:53 AM)15% (Apr 6, 3:53 PM)29.34 "Hg (Apr 8, 3:53 PM)
Average50 °F57%30.10 "Hg
* Reported Apr 6 12:53 AM — Apr 21 12:53 AM, Hartford, Weather by CustomWeather, © 2014

Note: Actual official high and low records may vary slightly from our data, if they occured in-between our weather recording intervals... More about our weather records

Advertising

Historic Weather Conditions — Data for Previous 24 hours

 ConditionsComfort  
Time TempWeatherWind HumidityBarometerVisibility
12:53 AM
Apr 21
38 °FClear.No wind76%30.32 "Hg10 mi
11:53 PM
Apr 20
41 °FClear.No wind62%30.34 "Hg10 mi
10:53 PM43 °FClear.3 mph51%30.37 "Hg10 mi
9:53 PM44 °FClear.7 mph47%30.39 "Hg10 mi
8:53 PM46 °FClear.8 mph44%30.39 "Hg10 mi
7:53 PM49 °FSunny.10 mph39%30.39 "Hg10 mi
6:53 PM53 °FSunny.14 mph37%30.38 "Hg10 mi
5:53 PM56 °FSunny.13 mph30%30.39 "Hg10 mi
4:53 PM58 °FSunny.12 mph28%30.39 "Hg10 mi
3:53 PM59 °FSunny.6 mph22%30.40 "Hg10 mi
2:53 PM58 °FSunny.No wind18%30.42 "Hg10 mi
1:53 PM57 °FSunny.No wind22%30.44 "Hg10 mi
12:53 PM55 °FSunny.No wind22%30.46 "Hg10 mi
11:53 AM53 °FSunny.6 mph24%30.48 "Hg10 mi
10:53 AM52 °FSunny.5 mph27%30.50 "Hg10 mi
9:53 AM50 °FSunny.8 mph33%30.50 "Hg10 mi
8:53 AM46 °FSunny.6 mph46%30.51 "Hg10 mi
7:53 AM42 °FSunny.8 mph55%30.51 "Hg10 mi
6:53 AM38 °FClear.5 mph65%30.50 "Hg10 mi
5:53 AM36 °FClear.No wind73%30.47 "Hg10 mi
4:53 AM39 °FClear.No wind65%30.46 "Hg10 mi
3:53 AM41 °FClear.3 mph55%30.44 "Hg10 mi
2:53 AM44 °FClear.6 mph49%30.43 "Hg10 mi
1:53 AM44 °FClear.7 mph47%30.43 "Hg10 mi
Weather by CustomWeather, © 2014

See weather overview